Погода в Нижних Киварах

Россия / Удмуртская Республика     57°19′26″N   54°05′18″E
темп.,
°C
ветер,
м/с
пор.,
м/с
влажн.,
%
обл.,
%
осадки,
мм/ч
давл.,
гПа
погр.,
м
21 июня, пн
пн2101:00+12в11598 0.0 102210
04:00+14в34547 0.0 1024113
07:00+16юв356014 0.0 1023265
10:00+20ю455067 0.0 1022798
13:00+21ююз565753 0.1 1022783
16:00+23ююз45615 0.1 1020596
19:00+21ю58775 0.1 1019370
22:00+18юз229546 0.3 101933
22 июня, вт
вт2201:00+18з37928 0.3 1019112
04:00+18зсз379220 0.4 1019112
07:00+23сз357920 0.0 1019209
10:00+28сз455627 0.0 1018661
13:00+30сз47438 0.0 10182614
16:00+30зсз554863 0.0 10181362
19:00+27сз496547 0.0 1017248
22:00+24зсз48557 0.0 1018123
23 июня, ср
ср2301:00+20сз512795 0.0 1018221
04:00+19сз23875 0.0 101736
07:00+22св227599 0.0 1018261
10:00+25св346549 0.0 1018801
13:00+27св336022 0.1 10171053
16:00+20всв6108930 2.9 1017256
19:00+21вюв3485100 1.4 1018351
22:00+18в349599 1.4 101886
24 июня, чт
чт2401:00+16ю22957 0.0 101915
04:00+15вюв019580 0.0 101811
07:00+19юз2286100 0.0 1018254
10:00+23юз216856 0.0 1018604
13:00+27зюз335821 0.0 1017985
16:00+28з235786 1.6 10161058
19:00+25з2574100 0.6 101498
22:00+17вюв239599 6.7 101666
25 июня, пт
пт2501:00+18з3591100 0.3 101495
04:00+18зсз119196 0.8 101419
07:00+21з238136 0.3 1012176
10:00+26зсз456466 0.3 1012614
13:00+30зсз465332 0.0 10121268
16:00+31сз575223 0.0 10102076
19:00+28зсз410690 0.0 1009343
22:00+23зсз410810 0.0 1009181